Weather Roundup
Issued by NWS Chicago, IL

Home | Current Version | Previous Version | Text Only | Print | Product List | Glossary Off
Versions: 1 2 3 4 5 6 7 8 9 10 11 12 13 14 15 16 17 18 19 20 21 22 23 24 25 26 27 28 29 30 31 32 33 34 35 36 37 38 39 40 41 42 43 44 45 46 47 48 49 50

000
NZUS59 KLOT 250521
HRRLOT

CHICAGO AREA WEATHER ROUNDUP
NATIONAL WEATHER SERVICE CHICAGO/ROMEOVILLE IL
1200 AM CDT MON MAY 25 2015

NOTE: "FAIR" INDICATES FEW OR NO CLOUDS BELOW 12,000 FEET WITH NO
SIGNIFICANT WEATHER AND/OR OBSTRUCTIONS TO VISIBILITY.

* THESE STATIONS ARE NOT UNDER NWS QUALITY CONTROL. THEY ALSO MAY NOT
  REPORT WEATHER SUCH AS PRECIPITATION OR FOG.

ILZ005-006-012>014-019>023-250600-
NORTHEAST ILLINOIS

CITY           SKY/WX    TMP DP  RH WIND       PRES   REMARKS
OHARE          MOCLDY    68  62  81 S9        29.91S
MIDWAY         MOCLDY    76  63  64 S13       29.92S
AURORA         MOCLDY    73  61  65 S15       29.90F
LANSING*       CLEAR     73  58  59 S14G20    29.94F
JOLIET*        MOCLDY    75  64  67 S10G16    29.91F
WAUKEGAN       MOCLDY    59  58  96 SE3       29.90F
DUPAGE AIRPORT PTCLDY    72  62  71 S16       29.90F
WHEELING       PTCLDY    63  61  93 SE6       29.92F FOG
KANKAKEE*      MOCLDY    74  63  66 S20G25    29.94F
MORRIS*        CLOUDY    73  63  69 S17       29.90S
LEWIS AIRPORT* MOCLDY    72  61  67 S17G24    29.91F
NORTHERLY IS     N/A     73  60  63 S14         N/A
$$

WIZ051-052-058>065-066-070>072-250600-
SOUTHEAST WISCONSIN

CITY           SKY/WX    TMP DP  RH WIND       PRES   REMARKS
MILWAUKEE      CLOUDY    58  56  93 CALM      29.91F FOG
KENOSHA*       CLOUDY    62  60  93 SE5       29.90F
RACINE*        CLOUDY    61  58  90 CALM      29.92F
BURLINGTON     CLOUDY    59  58  98 NW13      29.91R FOG
WAUKESHA       RAIN      54  54 100 CALM      29.93S
WEST BEND      LGT RAIN  54  54 100 CALM      29.93S
$$

INZ001>003-010>013-019-020-250600-
NORTHWEST INDIANA

CITY           SKY/WX    TMP DP  RH WIND       PRES   REMARKS
GARY*          CLEAR     77  61  58 S13G20    29.94F
MICHIGAN CITY* NOT AVBL
RENSSELAER*    NOT AVBL
VALPARAISO     PTCLDY    73  60  63 S9G18     29.97F
$$

LMZ740>746-250600-
SOUTHERN LAKE MICHIGAN

STATION/POSITION TIME  SKY/WX   TEMP WIND        PRES    VSBY
                                AIR  DIR/SP/G
                 (UTC)          (F)  (DEG/KT/KT) (MB)    (MI)
HARRISON CRIB    0500            71  180/ 21/ 24   N/A
BURNHAM HARBOR   0500            74  150/  8/ 15   N/A
CALUMET HARBOR   0400            76  160/ 12/ 23   N/A
BURNS HARBOR     0400            76  180/ 10/ 20 1014.9S
MICHIGAN CITY    0500            75  150/ 13/ 17   N/A
$$

ABBREVIATIONS USED IN REMARKS
   TC - TEMPERATURE IN CELSIUS
  WCI - WIND CHILL INDEX
   HX - HEAT INDEX
  VSB - VISIBILITY
$$


USA.gov is the U.S. government's official web portal to all federal, state and local government web resources and services.